Location: Unspecified
(0.0000°N, 0.0000°E)
Time: 02:29:39
(UTC+02:00)

Cosmos 1295 Rocket - Visible Passes

Search period start: 22 May 2018 00:00
Search period end: 01 June 2018 00:00
Orbit: 943 x 995 km, 82.9° (Epoch: 21 May)

Date Brightness Start Highest point End Pass type
(mag) Time Alt. Az. Time Alt. Az. Time Alt. Az.
22 May 6.3 05:15:55 10° NNE 05:20:53 26° E 05:25:53 10° SE visible
22 May 5.5 07:01:03 10° NW 07:05:48 24° W 07:10:36 10° SW visible
23 May 5.0 05:38:15 10° N 05:44:12 55° E 05:50:00 11° SSE visible
23 May 6.2 07:28:48 10° W 07:29:11 10° W 07:29:33 10° W visible
24 May 4.3 06:01:28 10° N 06:07:34 72° W 06:09:56 39° SSW visible
25 May 6.7 04:42:00 10° NE 04:46:02 18° E 04:46:48 18° E visible
25 May 5.0 06:25:30 10° NNW 06:30:56 34° W 06:31:12 34° W visible
26 May 5.7 05:03:44 10° NNE 05:08:31 37° ENE 05:08:31 37° ENE visible
26 May 6.0 06:50:49 10° WNW 06:52:56 15° WNW 06:52:56 15° WNW visible
27 May 5.3 05:26:35 10° N 05:30:32 43° N 05:30:32 43° N visible
28 May 5.8 05:50:12 10° NNW 05:52:44 25° NNW 05:52:44 25° NNW visible
29 May 6.9 04:29:25 10° NNE 04:30:38 15° NE 04:30:38 15° NE visible
29 May 6.5 06:14:47 10° NW 06:15:05 11° NW 06:15:05 11° NW visible
30 May 6.7 04:51:51 10° N 04:53:06 17° NNE 04:53:06 17° NNE visible
31 May 6.7 05:15:07 10° N 05:15:39 13° NNW 05:15:39 13° NNW visible
